Regional Weather Roundup
Issued by NWS

Home | Current Version | Previous Version | Text Only | Print | Product List | Glossary Off
Versions: 1 2 3 4 5 6 7 8 9 10 11 12 13 14 15 16 17 18 19 20 21 22 23 24 25 26 27 28 29 30 31 32 33 34 35 36 37 38 39 40 41 42 43 44 45 46 47 48 49 50

408
ASUS43 KDMX 262108
RWRIA

WEATHER ROUNDUP FOR IOWA
NATIONAL WEATHER SERVICE DES MOINES IA
400 PM CDT MON SEP 26 2016

NOTE: "FAIR" INDICATES FEW OR NO CLOUDS BELOW 12,000 FEET WITH NO
SIGNIFICANT WEATHER AND/OR OBSTRUCTIONS TO VISIBILITY.

* - THESE STATIONS ARE NOT NWS STATIONS...THUS NOT UNDER NWS
QUALITY CONTROL.  THEY ALSO DO NOT REPORT WEATHER SUCH
AS PRECIPITATION OR FOG.

IAZ001>003-012>014-020>022-031>034-043>046-262200-
   NORTHWEST IOWA

CITY           SKY/WX    TMP DP  RH WIND       PRES   REMARKS
CARROLL *      SUNNY     73  36  25 NW18G29   30.08F
CHEROKEE *     SUNNY     70  37  29 NW15G28   30.08S
DENISON *      MOSUNNY   72  41  33 NW21G28   30.08F
LE MARS *      MOSUNNY   72  39  30 W15G30    30.09F
ORANGE CITY *  SUNNY     70  39  32 W21G29    30.08F
SHELDON *      SUNNY     70  34  26 W14G25    30.06S
SIOUX CITY     SUNNY     74  43  32 NW17G26   30.08F
SPENCER        SUNNY     70  34  26 W31G38    30.04F
STORM LAKE *   SUNNY     72  34  25 NW18G31   30.07F
$$

IAZ055>058-069>071-079>083-090>094-262200-
   SOUTHWEST IOWA

CITY           SKY/WX    TMP DP  RH WIND       PRES   REMARKS
ATLANTIC *     SUNNY     73  41  31 W15G26    30.10F
AUDUBON *      MOSUNNY   72  37  28 NW14G20   30.11F
CLARINDA *       N/A     75  41  29 MISG      30.14F
COUNCIL BLFS * SUNNY     75  41  29 NW10G17   30.11F
CRESTON *      SUNNY     72  43  35 NW15G28   30.12F
HARLAN  *      SUNNY     73  39  29 W21G26    30.14F
LAMONI         SUNNY     73  40  30 W18G24    30.12F
RED OAK *      SUNNY     75  43  31 W10G18    30.12F
SHENANDOAH *   SUNNY     75  41  29 NW9G18    30.13F
$$

IAZ047>049-059>061-072>074-084-262200-
   CENTRAL IOWA

CITY           SKY/WX    TMP DP  RH WIND       PRES   REMARKS
AMES           SUNNY     72  39  30 NW18G33   30.05F
ANKENY *         N/A    N/A N/A N/A MISG        N/A
BOONE *        SUNNY     72  36  26 NW21G29   30.05S
CHARITON *       N/A     72  41  33 W16G24    30.09F
DES MOINES     MOSUNNY   74  37  26 W22G32    30.06F
GRINNELL*      SUNNY     71  36  27 W21G31    30.05F
KNOXVILLE *    SUNNY     72  36  26 W22G29    30.06F
MARSHALLTOWN   SUNNY     70  36  28 W25G37    30.02F
NEWTON *       SUNNY     72  36  26 W13G25    30.05S
PELLA *        SUNNY     73  35  24 W16G24    30.07F
PERRY *          N/A     73  32  22 NW18G29   30.08S
$$

IAZ004>006-015-016-023>025-035-036-262200-
   NORTH CENTRAL IOWA

CITY           SKY/WX    TMP DP  RH WIND       PRES   REMARKS
ALGONA *       SUNNY     70  34  26 W23G30    30.03S
CLARION *      SUNNY     70  34  26 W20G33    30.02F
ESTHERVILLE    SUNNY     68  31  25 NW20G31   30.02F
FORT DODGE *   SUNNY     70  39  32 W16G29    30.05F
MASON CITY     SUNNY     68  32  26 W24G35    30.01F
FOREST CITY *    N/A     68  32  26 W18G29    30.00F
WEBSTER CITY * SUNNY     72  36  26 W21G35    30.02F
IOWA FALLS *     N/A     71  35  26 W21G29    30.03F
$$

IAZ007>011-017>019-026>030-037>042-050>054-066-262200-
   NORTHEAST IOWA

CITY           SKY/WX    TMP DP  RH WIND       PRES   REMARKS
CEDAR RAPIDS   SUNNY     70  38  31 W25G32    30.00F
CHARLES CITY * SUNNY     68  30  24 W21       29.99R
CLINTON *      SUNNY     70  33  25 W18G29    29.98F
DECORAH *      SUNNY     66  32  28 W10G25    29.93S
DUBUQUE        SUNNY     67  32  27 W25G33    29.97F
MONTICELLO *   SUNNY     70  32  24 W21G29    29.98S
OELWEIN *      SUNNY     68  34  28 W23G31    29.98F
WATERLOO       SUNNY     69  32  25 W17G30    29.98F
$$

IAZ064-065-067-068-078-262200-
   EAST CENTRAL IOWA

CITY           SKY/WX    TMP DP  RH WIND       PRES   REMARKS
DAVENPORT      SUNNY     71  32  23 W21G32    30.00F
IOWA CITY      SUNNY     71  36  27 NW20G32   30.03F
MT. PLEASANT * SUNNY     74  33  21 W17G24    30.05F
MUSCATINE *    SUNNY     73  32  21 W22G35    30.02F
QUAD CITIES    SUNNY     72  33  24 W20G30    30.00F
$$

IAZ062-063-075>077-085>089-095>099-262200-
   SOUTHEAST IOWA

CITY           SKY/WX    TMP DP  RH WIND       PRES   REMARKS
BURLINGTON     SUNNY     71  35  26 W14G23    30.05F
FAIRFIELD *    SUNNY     73  32  21 W21G26    30.05F
FORT MADISON *   N/A     73  36  25 W16       30.07F
KEOKUK *       SUNNY     73  34  23 NW16G24   30.07S
OSKALOOSA *      N/A     73  33  22 NW20G28   30.06F
OTTUMWA        LGT RAIN  72  35  25 W21G28    30.06F
WASHINGTON *     N/A    N/A N/A N/A MISG        N/A
$$

ABBREVIATIONS USED IN REMARKS
   TC - TEMPERATURES IN CELSIUS
  WCI - WIND CHILL INDEX
   HX - HEAT INDEX
  VSB - VISIBILITY
$$





USA.gov is the U.S. government's official web portal to all federal, state and local government web resources and services.